Nagpur Sonegaon, India

11:19 PM IST on September 28, 2016 (GMT +0530)
Nagpur

Weather History for VANP - October, 2011

Change the Weather History Date:

Thursday, October 6, 2011

  Actual Average Record
Temperature  
Mean Temperature 81 °F -  
Max Temperature 92 °F - - ()
Min Temperature 70 °F - - ()
Cooling Degree Days 16    
Growing Degree Days 31 (Base 50)    
Moisture  
Dew Point 69 °F    
Average Humidity 66    
Maximum Humidity 88    
Minimum Humidity 44    
Precipitation  
Precipitation 0.01 in - - ()
Sea Level Pressure  
Sea Level Pressure 29.87 in    
Wind  
Wind Speed 3 mph ()    
Max Wind Speed 8 mph    
Max Gust Speed -    
Visibility 3.0 miles    
Events Rain    
T = Trace of Precipitation, MM = Missing Value Source: Averaged Metar Reports

Daily Weather History Graph

Daily Weather History Graph

Search for Another Location

Airport or City:

Trip Planner

Search our weather history database for the weather conditions in past years. The results will help you decide how hot, cold, wet, or windy it might be!

Date:

Astronomy

Oct. 06, 2011 Rise Set
Actual Time 6:06 AM IST 5:57 PM IST
Civil Twilight 5:43 AM IST 6:19 PM IST
Nautical Twilight 5:18 AM IST 6:45 PM IST
Astronomical Twilight 4:52 AM IST 7:11 PM IST
Moon 2:20 PM IST (10/6) 1:06 AM IST (10/6)
Length of Visible Light 12h 35m
Length of Day
11h 51m
Waxing Gibbous, 71% of the Moon is Illuminated
Oct 6
Waxing Gibbous
Oct 12
Full
Oct 20
Last Quarter
Oct 27
New
Nov 2
First Quarter

Hourly Weather History & Observations

Time (IST) Temp. Heat Index Dew Point Humidity Pressure Visibility Wind Dir Wind Speed Gust Speed Precip Events Conditions
12:10 AM 78.8 °F - 68.0 °F 69% 29.89 in 3.7 mi WNW 3.5 mph - N/A   Partly Cloudy
1:10 AM 78.8 °F - 68.0 °F 69% 29.86 in 3.7 mi NW 2.3 mph - N/A   Clear
2:10 AM 77.0 °F - 66.2 °F 69% 29.86 in 3.7 mi NNE 2.3 mph - N/A   Clear
2:30 AM 72 °F - 68 °F 83% 29.83 in 2 mi NNW 5.8 mph - -   Scattered Clouds
3:10 AM 77.0 °F - 68.0 °F 74% 29.86 in 3.7 mi North 3.5 mph - N/A   Partly Cloudy
4:10 AM 75.2 °F - 68.0 °F 78% 29.86 in 3.7 mi WNW 3.5 mph - N/A   Partly Cloudy
5:10 AM 75.2 °F - 68.0 °F 78% 29.86 in 3.7 mi West 3.5 mph - N/A   Partly Cloudy
5:30 AM 72 °F - 69 °F 88% 29.85 in 2 mi WNW 3.5 mph - -   Scattered Clouds
5:40 AM 73.4 °F - 68.0 °F 83% 29.89 in 3.7 mi Calm Calm - N/A   Partly Cloudy
6:10 AM 71.6 °F - 66.2 °F 83% 29.89 in 3.7 mi SW 3.5 mph - N/A   Partly Cloudy
7:10 AM 73.4 °F - 68.0 °F 83% 29.92 in 2.5 mi WNW 2.3 mph - N/A   Haze
8:10 AM 78.8 °F - 66.2 °F 65% 29.92 in 3.1 mi NW 5.8 mph - N/A   Haze
8:30 AM 78 °F - 69 °F 68% 29.91 in 2 mi NNW 5.8 mph - -   Scattered Clouds
9:10 AM 82.4 °F 84.6 °F 66.2 °F 58% 29.95 in 3.7 mi North 4.6 mph - N/A   Partly Cloudy
10:10 AM 86.0 °F 90.4 °F 69.8 °F 58% 29.95 in 3.7 mi ENE 2.3 mph - N/A   Mostly Cloudy
11:10 AM 91.4 °F 98.4 °F 71.6 °F 52% 29.95 in 3.1 mi ENE 2.3 mph - N/A   Haze
11:30 AM 89 °F - 70 °F 44% 29.88 in 2 mi SE 3.5 mph - -   Scattered Clouds
12:10 PM 95.0 °F 103.2 °F 71.6 °F 47% 29.92 in 3.7 mi NE 3.5 mph - N/A   Scattered Clouds
1:10 PM 95.0 °F 101.3 °F 69.8 °F 44% 29.86 in 3.7 mi East 5.8 mph - N/A   Partly Cloudy
2:10 PM 84.2 °F 88.4 °F 69.8 °F 62% 29.86 in 3.1 mi North 8.1 mph - N/A   Haze
2:30 PM 81 °F - 70 °F 61% 29.79 in 2 mi NW 4.6 mph - - Rain Light Rain
3:10 PM 84.2 °F 88.4 °F 69.8 °F 62% 29.83 in 3.1 mi NNW 4.6 mph - N/A   Haze
3:40 PM 89.6 °F 93.4 °F 68.0 °F 49% 29.83 in 3.1 mi North 3.5 mph - N/A   Haze
4:10 PM 89.6 °F 96.2 °F 71.6 °F 55% 29.83 in 3.1 mi NE 2.3 mph - N/A   Haze
4:40 PM 89.6 °F 94.7 °F 69.8 °F 52% 29.83 in 3.1 mi West 2.3 mph - N/A   Haze
5:10 PM 86.0 °F 91.8 °F 71.6 °F 62% 29.83 in 3.1 mi NNE 2.3 mph - N/A   Haze
5:30 PM 84 °F - 74 °F 65% 29.78 in 2 mi West 4.6 mph - - Rain Light Rain
5:40 PM 86.0 °F 90.4 °F 69.8 °F 58% 29.83 in 3.1 mi West 3.5 mph - N/A   Haze
6:10 PM 84.2 °F 89.6 °F 71.6 °F 66% 29.83 in 3.1 mi WNW 4.6 mph - N/A   Haze
6:40 PM 84.2 °F 88.4 °F 69.8 °F 62% 29.83 in 3.1 mi WNW 6.9 mph - N/A   Haze
7:10 PM 84.2 °F 88.4 °F 69.8 °F 62% 29.86 in 3.1 mi WNW 4.6 mph - N/A   Haze
8:10 PM 82.4 °F 85.4 °F 68.0 °F 62% 29.86 in 3.1 mi NW 6.9 mph - N/A   Haze
8:30 PM 78 °F - 70 °F 69% 29.84 in 2 mi WNW 5.8 mph - -   Haze
9:10 PM 78.8 °F - 69.8 °F 74% 29.89 in 3.1 mi Calm Calm - N/A   Haze
10:10 PM 77.0 °F - 69.8 °F 78% 29.89 in 3.1 mi North 2.3 mph - N/A   Haze
11:10 PM 77.0 °F - 69.8 °F 78% 29.89 in 3.1 mi NNE 3.5 mph - N/A   Haze
11:30 PM 77 °F - 71 °F 76% 29.85 in 2 mi NE 2.3 mph - -   Haze